www.pogodaiklimat.ru

Погода и климат >> Архив погоды >> Индонезия >> Маджене


ПОГОДА в Маджене

  • Прогноз погоды в Маджене
  • Монитор погоды в Маджене

АРХИВ ПОГОДЫ в Маджене

Время (UTC), дата Ветер
(напр.,м/с)
 
Видим.   Явления Облачность Т
(С)
Тd
(С)
f
(%)
Тe
(С)
Тes
(С)
Комфортность P
(гПа)
Po
(гПа)
Тmin
(С)
Tmax
(С)
R
(мм)
R24
(мм)
S
(см)
06 12.06 В 4 12 км {дождь} 8/3 540 м
[Cu med, cong Ac trans Ci fib]
+30.6 +24.6 70 +43 +48 опасность
перегрева
1009.6 1006.1 0.0
09 12.06 В 3 12 км 8/3 540 м
[Cu med, cong Ac trans Ci fib]
+28.6 +24.2 77 +40 +40 очень
душно
1009.2 1005.7
12 12.06 В 5 9000 м 8/3 540 м
[Cu med, cong Ac trans Ci fib]
+26.7 +23.4 82 +36 +36 очень
душно
1011.2 1007.6 +30.9
15 12.06 В 4 9000 м осадки на расстоянии 8/3 540 м
[Cu med, cong Ac trans Ci fib]
+26.0 +24.2 90 +36 +36 очень
душно
1012.3 1008.8
18 12.06 В 2 9000 м слаб. дождь 10/4 540 м
[Cu med, cong Ac As]
+24.6 +23.9 96 +34 +34 очень
душно
1011.3 1007.8 10
21 12.06 В 2 8000 м слаб. дождь 10/5 540 м
[Cu Sc Ac As]
+24.2 +23.8 98 +33 +33 очень
душно
1011.2 1007.7 10
00 13.06 СВ 1 10 км слаб. дождь 10/5 540 м
[Cu Sc Ac As]
+24.8 +24.4 98 +35 +35 очень
душно
1011.8 1008.3 +23.8 6
03 13.06 В 2 12 км {дождь} 8/3 540 м
[Cu med, cong Ac trans Ci fib]
+28.2 +25.0 83 +41 +48 опасность
перегрева
1011.3 1007.8 0.0
06 13.06 В 28 12 км {дождь} 6/3 540 м
[Cu med, cong Ac trans Ci fib]
+30.2 +25.4 76 +44 +44 опасность
перегрева
1009.2 1005.7 0.0
09 13.06 штиль 0 12 км 6/3 540 м
[Cu med, cong Ac trans Ci fib]
+29.2 +25.5 80 +43 +44 опасность
перегрева
1008.7 1005.2
12 13.06 СВ 2 8000 м слаб. дождь 9/3 540 м
[Cu med, cong Ac As Ci fib]
+24.2 +23.7 97 +33 +33 очень
душно
1011.6 1008.1 +30.6 25
15 13.06 СВ 1 10 км осадки на расстоянии 6/3 540 м
[Cu med, cong Ac trans Ci fib]
+24.2 +23.4 95 +32 +32 очень
душно
1012.0 1008.5 0.1
18 13.06 СВ 1 10 км {дождь} 8/3 540 м
[Cu med, cong Ac trans Ci fib]
+24.2 +23.5 96 +33 +33 очень
душно
1010.1 1006.6 0.1
21 13.06 штиль 0 10 км 9/4 540 м
[Cu Sc Ac trans Ci fib]
+24.8 +23.8 94 +34 +34 очень
душно
1009.8 1006.3
00 14.06 В 2 12 км 6/3 540 м
[Cu med, cong Ac trans Ci fib]
+27.2 +24.7 86 +39 +41 очень
душно
1011.4 1007.9 +24.3 25
03 14.06 В 3 12 км 5/3 540 м
[Cu med, cong Ac trans Ci fib]
+29.2 +24.6 76 +41 +49 опасность
перегрева
1010.9 1007.4
06 14.06 В 2 12 км 5/3 540 м
[Cu med, cong Ac trans Ci fib]
+30.4 +25.6 76 +45 +53 опасность
перегрева
1008.6 1005.1
09 14.06 В 2 12 км 9/3 540 м
[Cu med, cong Ac trans Ci fib]
+29.6 +25.6 79 +44 +44 опасность
перегрева
1008.4 1004.9
12 14.06 В 2 10 км {дождь} 8/3 540 м
[Cu med, cong Ac trans Ci fib]
+28.4 +25.8 86 +42 +42 опасность
перегрева
1010.2 1006.7 +30.6 0.0
15 14.06 В 3 10 км 6/3 540 м
[Cu med, cong Ac trans Ci fib]
+27.6 +25.0 86 +40 +40 очень
душно
1011.6 1008.1
18 14.06 В 3 10 км 6/3 540 м
[Cu med, cong Ac trans Ci fib]
+27.0 +24.0 84 +37 +37 очень
душно
1010.6 1007.1
21 14.06 В 5 10 км 6/3 540 м
[Cu med, cong Ac trans Ci fib]
+26.7 +23.3 82 +36 +36 очень
душно
1010.8 1007.3
00 15.06 В 5 12 км 8/3 540 м
[Cu med, cong Ac trans Ci fib]
+28.2 +22.9 73 +38 +39 очень
душно
1012.1 1008.6 +26.2 0.0
03 15.06 В 4 12 км 8/3 540 м
[Cu med, cong Ac trans Ci fib]
+28.4 +23.4 74 +38 +44 очень
душно
1012.4 1008.9
06 15.06 В 3 12 км 8/3 540 м
[Cu med, cong Ac trans Ci fib]
+30.4 +22.8 64 +40 +45 очень
душно
1009.5 1006.0
09 15.06 ЮВ 2 12 км 8/3 540 м
[Cu med, cong Ac trans Ci fib]
+29.6 +25.6 79 +44 +44 опасность
перегрева
1009.8 1006.3
12 15.06 Ю 4 10 км 5/3 540 м
[Cu med, cong Ac trans Ci fib]
+27.8 +23.7 78 +38 +38 очень
душно
1011.8 1008.3 +31.0
15 15.06 В 3 10 км 5/3 540 м
[Cu med, cong Ac trans Ci fib]
+26.8 +22.6 78 +35 +35 очень
душно
1012.0 1008.5
18 15.06 В 3 10 км 5/3 540 м
[Cu med, cong Ac trans Ci fib]
+26.2 +22.9 82 +35 +35 очень
душно
1010.9 1007.4
21 15.06 штиль 0 10 км 5/3 540 м
[Cu med, cong Ac trans Ci fib]
+24.6 +22.1 86 +32 +32 очень
душно
1010.8 1007.4
00 16.06 СВ 2 12 км 6/3 540 м
[Cu med, cong Ac trans Ci fib]
+27.0 +23.1 79 +36 +39 очень
душно
1012.7 1009.2 +23.2
03 16.06 В 3 12 км 4/3 540 м
[Cu med, cong Ac trans Ci fib]
+29.4 +23.9 72 +40 +49 очень
душно
1012.6 1009.0
06 16.06 В 3 12 км 4/3 540 м
[Cu med, cong Ac trans Ci fib]
+29.8 +24.0 71 +41 +49 опасность
перегрева
1010.1 1006.6
09 16.06 Ю 1 12 км 5/3 540 м
[Cu med, cong Ac trans Ci fib]
+29.4 +23.9 72 +40 +41 очень
душно
1009.7 1006.2
12 16.06 штиль 0 10 км 5/3 540 м
[Cu med, cong Ac trans Ci fib]
+27.2 +24.2 84 +38 +38 очень
душно
1011.3 1007.8 +30.2
15 16.06 ЮВ 2 9000 м 8/3 540 м
[Cu med, cong Ac trans Ci fib]
+27.8 +23.2 76 +37 +37 очень
душно
1012.7 1009.2
18 16.06 В 3 9000 м 9/4 540 м
[Cu med, cong Ac trans Ci fib]
+26.6 +23.5 83 +36 +36 очень
душно
1011.7 1008.2
21 16.06 В 3 9000 м 9/3 540 м
[Cu med, cong Ac trans Ci fib]
+26.8 +23.1 80 +36 +36 очень
душно
1011.3 1007.8
00 17.06 СВ 2 11 км 9/4 540 м
[Cu med, cong Ac trans Ci fib]
+26.4 +23.4 84 +36 +37 очень
душно
1013.2 1009.6 +25.4
03 17.06 В 4 11 км 9/5 540 м
[Cu Sc Ac As Ci fib]
+29.0 +24.4 76 +41 +44 опасность
перегрева
1013.3 1009.8
06 17.06 В 5 12 км 9/4 540 м
[Cu med, cong Ac trans Ci fib]
+29.3 +24.5 75 +41 +44 опасность
перегрева
1011.3 1007.8
09 17.06 В 3 11 км осадки на расстоянии 9/4 540 м
[Cu Sc Ac As Ci fib]
+27.2 +22.7 76 +36 +36 очень
душно
1011.3 1007.8
12 17.06 СВ 4 9000 м слаб. дождь 9/5 540 м
[Cu Sc Ac As Ci fib]
+24.1 +22.1 89 +31 +31 очень
душно
1012.9 1009.4 +30.0 0.2
15 17.06 СВ 2 9000 м осадки на расстоянии 9/5 540 м
[Cu Sc Ac As Ci fib]
+25.0 +20.7 77 +31 +31 очень
душно
1012.0 1008.5 0.0
18 17.06 В 1 9000 м 9/3 540 м
[Cu med, cong Ac trans Ci fib]
+25.0 +21.6 81 +32 +32 очень
душно
1011.4 1007.9
21 17.06 В 2 9000 м 9/3 540 м
[Cu med, cong Ac trans Ci fib]
+23.6 +21.1 86 +30 +30 очень
душно
1011.6 1008.1
00 18.06 штиль 0 12 км 9/3 540 м
[Cu med, cong Ac trans Ci fib]
+25.4 +23.3 88 +34 +36 очень
душно
1012.7 1009.2 +22.9 0.2
03 18.06 В 2 12 км 8/1 540 м
[Cu med, cong Ac trans Ci fib]
+28.0 +23.3 76 +38 +48 очень
душно
1011.9 1008.4
06 18.06 В 3 12 км 4/3 540 м
[Cu med, cong Ac trans Ci fib]
+30.0 +24.1 71 +42 +50 опасность
перегрева
1010.2 1006.7
09 18.06 В 3 12 км 4/3 540 м
[Cu med, cong Ac trans Ci fib]
+29.6 +23.2 69 +40 +41 очень
душно
1009.5 1006.0
12 18.06 В 3 10 км 5/3 540 м
[Cu med, cong Ac trans Ci fib]
+27.6 +22.2 72 +36 +36 очень
душно
1011.0 1007.5 +30.4
15 18.06 В 3 10 км 5/3 540 м
[Cu med, cong Ac trans Ci fib]
+27.0 +22.5 76 +35 +35 очень
душно
1011.4 1007.9
18 18.06 СВ 3 10 км 4/3 540 м
[Cu med, cong Ac trans Ci fib]
+25.8 +22.8 84 +34 +34 очень
душно
1010.6 1007.1
21 18.06 СВ 1 9000 м 4/3 540 м
[Cu med, cong Ac trans Ci fib]
+24.6 +23.0 91 +33 +33 очень
душно
1010.5 1007.0
00 19.06 В 2 12 км 4/3 540 м
[Cu med, cong Ac trans Ci fib]
+27.6 +23.2 77 +37 +40 очень
душно
1012.1 1008.5 +23.4
03 19.06 В 3 12 км 8/3 540 м
[Cu med, cong Ac trans Ci fib]
+29.4 +23.4 70 +40 +46 очень
душно
1011.3 1007.8

 

Местоположение метеостанции Маджене (Индонезия): широта -2.50 долгота 119.00 высота над уровнем моря 8 м.

В архиве по умолчанию представлена погода в Маджене за последнюю неделю. Архивные данные за месяц целиком и за предыдущие месяцы, начиная с января 2011 года, Вы можете получить, выбрав интересующий диапазон дат из раскрывающегося списка и нажав кнопку "Ввод!".


*Определитесь, кто Вы:
робот инопланетянин человек

Внимание! Время в таблицах - всемирное. Для получения местного времени необходимо прибавить поправку, которая равна 8 ч.

Смотрите также архив погоды в соседних городах и на ближайших метеорологических станциях:

Погода в Масамбе (Индонезия) (151 км)
Погода в Палу (Индонезия) (218 км)
Погода в Посо (Индонезия) (229 км)
Погода в Баликпапане (Индонезия) (271 км)
Погода в Аэропорту Султана Хасануддин (Индонезия) (292 км)
Погода в Уджангпанданге (Индонезия) (292 км)
Погода в Самаринде (Индонезия) (293 км)
Погода в Котабару (Индонезия) (326 км)
Погода в Колаке (Индонезия) (345 км)
Погода в Кендари (Индонезия) (420 км)

Пояснения к столбцам:

Ветер - указаны скорость ветра в м/с - средняя за 10 мин, порывы в срок и между сроками (в фигурных скобках) и направление, откуда дует ветер: С - северный, СВ - северо-восточный, В - восточный, ЮВ - юго-восточный, Ю - южный, ЮЗ - юго-западный, З - западный, СЗ - северо-западный.
Видимость - горизонтальная дальность видимости в метрах или километрах. При видимости от 1 до 10 км при отсутствии осадков обычно наблюдается дымка, при ухудшении видимости до 1 км и менее - туман. В сухую погоду видимость может ухудшаться дымом, пылью или мглою.
Явления - указаны атмосферные явления, наблюдавшиеся в срок или в последний час перед сроком; фигурными скобками обозначены явления, наблюдавшиеся между сроками (за 1-3 часа до срока); квадратными скобками обозначены град или гололедные отложения с указанием их диаметра в мм.
Облачность - указаны через наклонную черту общая и нижняя облачность в баллах и высота нижней границы облаков в метрах; квадратными скобками обозначены формы облаков: Ci - перистые, Cs - перисто-слоистые, Cc - перисто-кучевые, Ac - высококучевые, As - высокослоистые, Sc - слоисто-кучевые, Ns - слоисто-дождевые, Cu - кучевые, Cb - кучево-дождевые. Подробнее классификацию облаков см. в Атласе облаков (PDF).
T - Температура воздуха - температура, измеренная на высоте 2 м над землей.
Td - Температура точки росы - температура, при понижении до которой содержащийся в воздухе водяной пар достигнет насыщения.
f - Относительная влажность воздуха - влажноcть воздуха, измеренная на высоте 2 м над землей.
Te - Эффективная температура - температура, которую ощущает одетый по сезону человек в тени. Характеристика душности погоды. При расчете учитывается влияние влажности воздуха и скорости ветра на теплоощущения человека.
Tes - Эффективная температура на солнце - температура, которую ощущает человек, с поправкой на солнечный нагрев. Характеристика знойности погоды. Зависит от высоты солнца над горизонтом, облачности и скорости ветра. Ночью, в пасмурную погоду, а также при ветре 12 м/с и более поправка равна нулю.
P - Атмосферное давление - приведенное к уровню моря атмосферное давление.
Po - Атмосферное давление - измеренное на уровне метеостанции атмосферное давление.
Tmin - Минимальная температура - минимум температуры воздуха на высоте 2 м над землей.
Tmax - Максимальная температура - максимум температуры воздуха на высоте 2 м над землей.
R - Количество осадков - Количество выпавших осадков за период времени, мм. При наведении курсора мыши на число - период времени, за который выпало указанное количество осадков.
R24 - Количество осадков - Количество выпавших осадков за 24 часа, мм.
S - Снежный покров - Высота снежного покрова, см. При наведении курсора мыши на число - состояние снежного покрова и степень покрытия местности в баллах.